This demonstration page uses our WeatherBlox Daily Observations layout. Learn more.

Left ArrowRight Arrow

Hourly Observations for September 6, 2018

Temp ( °F °C ) Dew Point ( °F °C ) Humidity (%) Winds ( mph kmh ) Pressure ( in mb ) Visibility ( mi km ) Precip ( " mm )
12:57 am 00:57 Cloudy 64 17.8 62 16.7 93 93 NE 10 17 30.30 1026 10 16 0.00 0.00
1:41 am 01:41 Cloudy 64 18 61 16 88 88 NNE 9 15 30.27 1025 10 16 0.00 0.00
1:57 am 01:57 Cloudy 64 17.8 61 16.1 90 90 NNE 9 15 30.30 1026 10 16 0.00 0.00
2:57 am 02:57 Cloudy 63 17.2 59 15 87 87 NE 8 13 30.29 1026 10 16 0.00 0.00
3:57 am 03:57 Cloudy 63 17.2 58 14.4 84 84 NE 9 15 30.29 1026 10 16 0.00 0.00
4:45 am 04:45 Mostly Clear 61 16 55 13 83 83 NNE 8 13 30.27 1025 10 16 0.00 0.00
4:57 am 04:57 Clear 60 15.6 56 13.3 86 86 NNE 8 13 30.29 1026 10 16 0.00 0.00
5:57 am 05:57 Clear 58 14.4 55 12.8 90 90 NNE 9 15 30.29 1026 10 16 0.00 0.00
6:57 am 06:57 Clear 58 14.4 55 12.8 90 90 NNE 10 17 30.29 1026 10 16 0.00 0.00
7:57 am 07:57 Sunny 58 14.4 55 12.8 90 90 NNE 8 13 30.32 1027 10 16 0.00 0.00
8:57 am 08:57 Sunny 60 15.6 55 12.8 84 84 NE 10 17 30.32 1027 10 16 0.00 0.00
9:54 am 09:54 Mostly Cloudy 63 17 57 14 83 83 NE 9 15 30.30 1026 10 16 0.00 0.00
9:57 am 09:57 Mostly Cloudy 63 17.2 57 13.9 81 81 NE 12 19 30.33 1027 10 16 0.00 0.00
10:06 am 10:06 Partly Cloudy 63 17 57 14 83 83 NE 12 19 30.30 1026 10 16 0.00 0.00
10:57 am 10:57 Mostly Sunny 62 16.7 56 13.3 80 80 NE 13 20 30.33 1027 10 16 0.00 0.00
11:57 am 11:57 Mostly Cloudy 66 18.9 58 14.4 75 75 NE 8 13 30.32 1027 10 16 0.00 0.00
12:09 pm 12:09 Partly Cloudy 66 19 57 14 73 73 ENE 12 19 30.27 1025 10 16 0.00 0.00
12:57 pm 12:57 Sunny 69 20.6 59 15 70 70 NE 12 19 30.29 1026 10 16 0.00 0.00
1:43 pm 13:43 Mostly Cloudy 72 22 61 16 69 69 NE 10 17 30.21 1023 10 16 0.00 0.00
1:57 pm 13:57 Mostly Cloudy 72 22.2 61 16.1 68 68 ENE 14 22 30.27 1025 10 16 0.00 0.00
2:57 pm 14:57 Cloudy 72 22.2 61 16.1 68 68 E 10 17 30.25 1025 10 16 0.00 0.00
3:57 pm 15:57 Cloudy 71 21.7 62 16.7 73 73 E 9 15 30.24 1024 10 16 0.00 0.00
4:25 pm 16:25 Cloudy 72 22 63 17 73 73 ESE 8 13 30.21 1023 10 16 0.00 0.00
4:57 pm 16:57 Cloudy 71 21.7 62 16.7 73 73 E 6 9 30.22 1024 10 16 0.00 0.00
5:57 pm 17:57 Cloudy 72 22.2 63 17.2 73 73 E 8 13 30.22 1023 10 16 0.00 0.00
6:57 pm 18:57 Cloudy 71 21.7 64 17.8 79 79 Calm 30.21 1023 10 16 0.00 0.00
7:57 pm 19:57 Cloudy 69 20.6 64 17.8 84 84 E 6 9 30.21 1023 10 16 0.00 0.00
8:24 pm 20:24 Cloudy 68 20 64 18 88 88 E 6 9 30.18 1022 10 16 0.00 0.00
8:57 pm 20:57 Cloudy 68 20 64 17.8 87 87 ENE 3 6 30.23 1024 10 16 0.00 0.00
9:36 pm 21:36 Cloudy 68 20 64 18 88 88 E 3 6 30.21 1023 10 16 0.00 0.00
9:57 pm 21:57 Cloudy 67 19.4 65 18.3 93 93 E 5 7 30.24 1024 10 16 0.00 0.00
10:30 pm 22:30 Cloudy 66 19 64 18 94 94 ESE 13 20 30.21 1023 7 11 0.00 0.00
10:57 pm 22:57 Cloudy 65 18.3 64 17.8 97 97 ENE 6 9 30.25 1024 9 14 0.00 0.00
11:57 pm 23:57 Cloudy 66 18.9 64 17.8 93 93 ENE 3 6 30.23 1024 9 14 0.00 0.00

Powered by AerisWeather